Theta_e
343 343 346 345 344 341 340 341 343 344 343 343 342 342 341 342 341 341 341 341 341 341 341 341 341 342 342 340 341 343 340 342 344 345 346 346 346 346 347 346 346 346 345 346 346 345 343 343 343 342 342 343 344 343 342 343 343 344 344 344 344 344 344 343 343 343 342 342 342 342 343 343 342 342 342 341 338 337 337 340 343 345 343 341 342
345 345 346 345 344 343 342 343 343 343 342 342 343 343 342 343 343 342 342 341 341 341 342 341 342 342 342 342 342 343 344 345 345 345 346 346 347 346 347 346 346 346 345 346 346 345 344 343 343 342 343 344 344 344 343 343 343 344 344 344 344 344 344 343 342 342 342 341 341 341 342 342 342 343 343 344 343 343 341 339 338 338 336 339 342
345 346 346 346 346 345 344 343 342 341 340 340 342 343 342 342 343 342 341 340 341 342 342 342 342 342 342 344 343 341 344 346 346 346 346 347 347 346 346 345 346 345 346 346 345 344 344 344 343 343 343 344 344 343 343 343 343 343 343 344 344 344 343 342 341 340 341 340 339 340 340 340 341 341 342 343 344 344 344 342 339 336 333 336 339
345 346 347 346 346 346 344 342 343 342 340 340 340 341 341 341 342 341 340 339 341 342 342 342 342 343 343 343 341 339 344 347 346 346 346 347 347 347 346 345 345 345 346 346 344 343 344 344 343 344 343 343 343 343 343 343 342 343 343 343 342 342 341 339 339 340 341 341 341 341 340 339 339 340 341 342 343 343 343 343 342 341 339 337 336
345 345 346 347 346 346 344 342 342 341 340 340 340 340 341 341 341 340 339 339 342 342 341 342 342 342 341 340 337 339 345 346 345 345 345 346 346 347 346 345 345 345 346 345 345 345 344 344 344 343 342 342 342 343 343 342 342 343 342 340 340 339 338 338 340 342 344 345 345 344 340 337 337 338 340 341 342 342 342 342 342 343 343 342 340
346 344 344 346 346 344 343 343 342 342 340 339 340 341 342 342 341 341 340 340 342 341 341 341 340 340 339 337 335 339 345 345 345 346 345 345 346 346 346 346 345 345 344 345 345 345 345 344 344 343 342 341 342 343 342 342 342 342 341 338 337 336 336 339 342 345 347 347 346 345 342 338 336 337 338 339 339 339 339 338 338 340 342 343 344
346 345 344 343 344 344 343 343 343 342 340 340 341 342 344 343 342 342 341 342 342 341 341 340 338 339 340 339 339 341 345 345 345 347 345 345 346 345 345 346 345 344 344 344 344 344 344 343 344 343 343 342 342 343 342 342 342 341 338 336 335 334 336 340 344 347 347 348 347 347 346 342 338 337 337 337 337 336 336 336 336 338 341 342 342
345 344 344 342 342 342 342 342 343 342 341 342 342 342 345 344 342 342 343 344 343 342 342 340 339 341 342 343 343 344 345 346 346 346 345 345 345 344 345 346 345 344 343 344 344 344 344 343 343 343 343 342 341 342 341 341 340 338 335 335 335 336 340 343 345 347 347 348 348 347 347 344 341 339 339 339 339 338 339 338 337 337 338 340 342
345 344 344 342 341 340 341 341 342 342 342 342 341 342 344 344 342 341 341 343 343 342 342 340 340 342 343 343 344 344 345 345 345 344 344 344 344 344 344 345 345 344 344 344 344 344 344 344 343 343 342 342 341 339 338 337 336 335 334 335 337 339 342 344 345 347 348 349 348 347 348 347 342 338 338 340 341 341 342 343 342 339 338 340 342
347 346 345 344 343 341 341 342 342 342 343 342 342 343 344 344 341 340 340 341 343 342 342 341 340 340 341 343 344 345 346 345 344 344 344 345 345 345 344 345 345 345 345 344 344 344 344 344 343 342 342 342 341 338 335 332 332 332 332 335 337 340 342 344 346 347 348 348 347 347 347 348 343 337 337 340 342 343 344 345 344 342 340 340 340
348 348 347 346 344 343 342 343 342 342 343 343 343 344 345 343 341 340 340 341 343 342 342 342 341 339 339 342 344 345 346 345 344 344 345 346 346 345 344 344 344 344 345 344 343 343 343 343 343 342 342 343 342 338 333 329 327 327 328 332 336 340 343 344 346 346 347 348 348 347 347 346 342 339 339 340 342 343 343 342 341 340 339 338 338
350 349 346 344 343 342 343 343 342 343 343 343 343 345 345 344 342 341 341 341 342 342 342 343 342 340 340 342 343 345 346 345 345 345 345 345 345 345 344 344 344 344 343 343 342 343 343 342 342 342 342 342 340 334 328 326 325 324 325 329 334 338 343 345 346 346 348 349 349 350 349 344 339 339 339 340 341 341 342 341 340 339 339 339 339
351 349 344 342 343 342 342 343 342 342 342 342 343 345 345 345 343 341 342 342 343 344 343 344 344 341 341 342 343 344 346 345 345 345 344 344 344 344 344 344 344 345 344 344 343 343 343 343 342 342 342 341 339 333 325 324 324 324 324 327 332 336 341 345 346 347 348 349 349 349 348 343 338 337 335 335 336 338 339 338 338 338 338 338 337
350 350 347 343 343 342 341 342 343 343 342 343 344 345 345 344 343 342 342 342 343 345 344 344 344 342 342 343 342 344 346 344 344 344 343 343 342 343 344 344 345 344 345 345 344 344 343 343 342 342 342 341 340 335 326 325 325 325 325 326 329 333 340 344 346 347 347 348 348 346 344 339 334 332 329 329 329 330 332 332 333 333 332 330 329
350 351 350 345 341 341 341 341 343 344 344 345 345 345 344 344 343 342 343 342 343 344 344 343 343 342 343 344 342 345 348 345 343 343 343 342 341 343 344 343 344 343 343 344 344 344 343 343 342 342 341 341 341 334 326 325 325 326 325 325 327 334 340 343 344 345 346 347 346 345 340 330 326 325 324 325 324 323 323 324 325 325 324 323 323
350 350 351 348 342 341 342 343 343 344 345 345 345 345 344 344 343 343 343 343 343 343 344 343 343 343 343 345 344 345 347 344 343 343 342 342 341 342 343 343 343 343 343 344 344 344 344 343 342 342 341 340 338 331 327 326 325 325 325 324 328 337 342 341 343 344 345 345 346 345 333 321 322 322 322 323 323 322 320 320 321 321 321 321 322
351 351 352 350 345 343 345 345 342 342 343 343 343 344 344 343 343 343 343 343 342 343 343 343 344 344 344 346 345 343 344 343 343 343 341 342 342 342 342 343 343 343 343 343 343 343 344 343 342 342 341 339 336 331 329 329 327 325 324 325 328 338 343 343 344 344 345 345 347 345 329 320 323 321 322 324 324 323 321 321 321 322 323 323 324
350 350 350 349 346 346 347 345 341 341 342 342 342 342 343 343 344 344 344 343 342 343 343 343 344 345 345 345 345 343 343 343 343 343 342 341 341 342 342 343 343 342 343 342 343 344 344 343 342 341 339 337 334 332 332 332 329 325 324 324 329 337 342 343 342 341 344 345 346 341 325 321 322 321 323 324 324 324 324 324 324 325 325 326 327
349 349 348 347 347 348 349 345 342 343 342 342 343 342 342 342 344 345 344 343 343 343 343 343 344 344 345 345 343 343 343 343 344 343 343 342 341 342 342 343 343 342 341 340 341 343 343 342 341 338 336 334 332 333 332 331 328 326 327 328 334 341 342 344 343 343 344 346 345 331 320 322 322 322 324 324 325 325 325 326 326 327 328 328 329
347 347 348 349 350 350 350 345 342 343 342 342 344 343 342 342 343 343 343 343 343 343 343 344 345 344 345 345 342 342 343 343 344 344 344 343 343 342 342 342 341 339 336 335 336 339 341 340 339 336 334 332 332 334 331 329 328 330 335 338 341 343 344 344 345 346 342 345 344 326 320 323 322 324 324 325 325 326 327 327 328 329 329 331 332
346 348 350 351 351 350 349 346 343 343 341 341 344 343 343 343 343 342 343 344 343 344 345 344 344 344 345 344 342 342 343 344 343 343 344 344 343 343 343 342 337 332 330 329 330 334 336 337 338 336 333 333 334 333 330 327 329 334 340 343 343 343 346 346 346 345 341 345 340 322 322 323 323 325 325 326 327 327 328 328 330 331 332 333 334
347 350 351 351 350 350 349 348 347 344 343 342 343 344 344 344 344 343 343 343 343 344 345 343 342 344 344 343 342 343 343 343 343 342 343 343 343 343 343 338 330 327 327 328 330 333 335 337 338 334 332 336 337 337 334 328 330 337 341 343 345 345 347 347 346 346 346 345 332 320 324 324 325 326 326 328 328 329 330 331 332 333 334 334 334
348 350 351 351 350 350 350 350 349 347 347 344 343 345 344 344 344 344 344 344 344 345 344 341 343 343 342 342 342 343 343 343 342 342 344 344 343 343 339 332 326 326 328 331 334 336 337 338 336 334 335 341 342 344 343 338 337 342 343 343 344 346 347 348 347 345 347 343 327 322 326 325 327 327 328 329 330 332 332 333 334 333 334 332 332
349 350 350 351 350 350 350 350 350 349 349 346 344 345 344 344 344 345 346 346 345 345 344 341 343 343 341 342 342 344 344 343 343 344 344 343 341 339 333 329 327 329 332 334 336 336 337 337 336 336 341 344 345 345 346 345 345 346 345 344 345 347 347 347 347 345 345 337 325 324 326 326 328 328 329 331 332 333 333 334 334 333 332 332 332
350 349 349 350 351 350 350 350 350 350 350 347 346 346 345 344 345 347 348 348 346 346 345 342 344 343 341 342 342 344 344 343 344 344 342 340 336 335 334 333 330 331 335 337 338 338 338 338 340 342 344 344 346 346 345 346 346 345 346 345 346 347 345 344 345 346 344 332 324 326 327 328 329 330 332 333 334 333 333 333 332 332 332 333 334
349 350 349 350 351 351 349 350 350 350 350 348 347 346 344 344 344 346 347 347 347 346 344 342 343 341 340 342 341 343 343 342 344 343 341 340 339 341 343 341 337 337 340 343 344 343 342 344 345 344 344 343 343 344 345 346 345 344 345 345 346 346 344 344 344 347 343 330 326 328 327 330 331 332 333 333 333 332 332 332 331 332 333 334 335
348 350 350 350 350 350 350 350 350 351 350 349 349 346 345 345 344 345 345 345 345 345 344 342 342 340 340 341 340 342 342 341 342 342 341 343 346 348 348 345 343 343 344 346 347 346 346 347 346 345 345 343 342 343 345 345 346 346 343 345 346 345 344 344 344 346 343 330 326 330 329 331 332 332 333 332 332 331 331 331 332 334 334 336 337
349 350 350 349 349 350 350 349 349 350 349 350 349 348 348 347 344 344 346 345 344 346 345 342 342 341 340 340 341 341 342 342 342 341 342 346 349 349 347 345 345 346 346 346 347 347 347 347 346 346 346 346 344 344 345 344 346 346 342 344 344 343 344 344 344 345 345 336 328 330 331 331 332 332 332 331 331 330 331 332 334 335 336 338 339
349 350 350 350 349 349 350 349 350 350 349 350 350 349 350 349 347 347 347 346 345 348 346 342 342 342 342 341 341 343 343 343 342 343 346 349 349 347 346 345 346 347 347 348 348 349 348 348 347 346 347 349 346 345 346 344 344 344 343 343 342 342 343 344 344 343 346 342 330 328 331 331 332 332 331 330 330 331 332 334 335 337 339 339 340
348 349 350 350 348 349 351 351 351 350 350 350 351 350 350 350 350 350 348 346 347 347 346 343 340 342 342 343 345 346 345 345 346 348 349 348 347 346 345 346 348 349 349 349 349 349 348 347 348 348 349 350 348 345 348 346 342 342 343 344 342 341 342 342 343 341 344 344 333 327 330 331 331 331 330 329 330 332 334 335 337 338 339 340 341
348 349 350 349 348 349 351 351 348 348 350 350 350 351 351 350 351 349 347 347 346 345 347 346 343 341 338 341 347 348 347 348 349 350 348 346 345 346 346 348 350 349 349 349 349 350 349 348 349 350 350 350 349 347 348 345 342 342 342 342 342 341 342 341 341 340 341 345 340 331 329 332 331 330 329 330 331 334 335 337 338 339 340 340 342
348 349 350 349 348 349 350 350 347 345 349 349 349 350 351 351 350 350 348 347 347 346 348 348 347 346 340 342 349 350 350 349 349 348 346 345 345 347 348 348 349 349 349 350 351 350 350 348 347 349 351 351 348 346 347 344 342 343 342 342 342 341 342 341 340 339 339 342 345 338 331 331 330 329 329 330 332 334 336 338 339 339 340 341 342
349 350 350 348 348 349 349 351 348 345 348 349 349 349 350 351 351 351 349 347 348 348 349 349 349 348 344 344 347 349 350 348 347 347 346 345 346 348 349 349 349 350 350 350 350 349 349 348 347 349 351 351 348 346 346 342 342 344 342 342 343 341 341 341 338 339 340 339 344 345 338 331 328 329 330 330 333 335 337 338 338 339 340 341 342
350 349 349 348 349 349 349 351 349 347 349 349 348 349 349 351 351 349 349 349 350 349 349 350 348 346 343 342 342 344 346 343 342 346 347 346 348 349 349 349 350 351 350 350 350 349 349 348 349 350 350 350 347 346 346 342 341 343 343 343 342 342 342 342 340 340 342 341 342 345 342 335 330 329 329 330 332 334 337 338 339 340 340 341 342
350 349 349 349 348 348 349 351 350 348 348 348 348 349 349 350 349 349 350 350 350 350 350 348 347 346 343 341 340 340 341 339 338 345 348 347 349 349 349 350 350 351 350 350 351 349 349 349 350 350 350 350 345 343 344 344 342 341 343 343 342 343 342 340 341 340 341 342 342 343 344 342 340 337 335 336 335 334 337 338 339 340 341 342 343
350 349 350 349 348 348 349 349 350 349 348 348 348 349 349 349 349 349 350 350 349 350 349 348 347 347 345 340 339 338 339 338 337 345 349 348 349 349 350 349 349 352 351 349 350 350 349 349 352 352 352 351 346 342 342 343 343 340 342 343 341 344 343 341 343 341 341 342 340 340 342 341 343 344 343 342 339 337 337 337 338 340 341 342 343
350 350 349 350 349 347 348 349 350 350 349 347 345 346 347 348 348 348 350 350 349 349 348 348 348 348 347 342 338 337 338 337 337 345 350 349 349 348 349 349 350 353 352 350 349 350 349 349 352 353 353 354 349 343 341 341 341 341 343 342 342 343 342 343 344 341 341 342 339 339 340 338 340 341 340 339 338 338 338 338 339 339 339 341 341
350 350 349 350 349 346 347 349 349 350 349 346 343 343 343 346 349 348 349 349 348 348 348 348 347 348 348 342 337 337 338 337 338 344 351 350 348 350 350 349 352 352 351 352 350 350 350 351 353 352 352 354 351 346 343 343 341 340 342 341 341 342 341 343 342 342 341 340 340 341 340 338 338 336 336 340 339 337 339 339 340 341 340 341 342
350 350 349 350 350 348 349 349 349 350 349 345 344 345 343 346 350 348 349 349 348 348 347 347 347 347 347 339 336 338 336 337 339 344 351 351 348 351 350 349 352 350 350 353 350 351 352 354 355 351 351 352 350 348 344 344 342 340 342 342 342 342 344 343 341 342 341 340 340 341 340 339 340 337 334 339 340 338 339 336 338 342 342 342 345
351 351 350 351 351 350 350 348 349 351 348 345 346 347 346 348 349 347 349 349 348 347 347 347 346 347 346 337 337 340 336 336 339 342 350 353 351 352 351 351 353 349 350 353 352 351 350 352 354 349 351 352 348 346 343 342 343 341 341 341 342 343 343 343 342 343 341 341 340 338 340 338 339 341 337 338 340 340 340 338 338 343 343 342 345
352 352 351 352 352 351 351 349 349 350 348 348 348 349 348 349 348 347 349 349 348 347 347 347 346 349 346 339 341 342 336 337 340 342 347 350 352 353 350 350 353 351 352 355 355 351 346 349 352 348 351 352 348 346 343 342 342 341 340 339 341 342 343 343 342 343 341 341 340 338 341 339 339 342 340 340 341 339 340 342 343 345 346 347 346
353 352 352 353 352 352 351 349 349 349 348 349 350 350 349 349 348 348 348 348 349 348 348 348 347 349 345 340 345 344 339 340 340 341 342 346 351 353 349 347 351 351 349 350 350 345 343 349 352 351 352 349 348 347 345 346 344 339 339 339 339 339 341 341 340 342 341 341 341 339 340 339 339 341 341 342 341 340 340 343 345 346 347 347 344
353 352 352 353 352 353 352 350 350 349 349 349 349 350 349 349 349 348 348 348 349 348 349 348 347 349 345 342 347 344 340 344 342 341 344 347 351 352 351 348 348 348 346 348 348 344 344 351 353 354 353 349 348 346 345 348 345 339 339 339 338 338 338 339 340 340 340 340 340 340 340 338 339 340 341 342 341 342 343 343 344 345 346 344 341
353 352 353 352 353 354 351 351 350 348 350 348 348 352 350 349 351 351 351 348 348 349 349 349 348 347 344 346 348 342 343 349 347 347 350 348 345 349 353 352 347 346 346 346 347 348 347 351 354 354 354 351 349 346 345 346 345 344 344 341 337 337 338 339 341 340 339 340 339 338 339 338 338 340 340 341 342 343 344 344 343 344 344 344 342
353 352 353 352 352 355 351 349 349 349 350 345 345 350 347 346 349 351 353 351 350 352 350 349 348 346 344 347 348 342 345 352 351 351 353 347 342 346 351 352 348 347 350 349 349 351 351 353 354 353 353 353 352 351 347 346 346 346 348 346 340 338 341 341 340 341 340 339 339 339 338 337 337 340 341 340 342 343 342 344 344 344 344 345 345
353 352 353 351 352 355 351 348 348 350 350 341 337 344 341 340 344 347 351 352 352 353 350 349 348 346 344 346 348 347 348 353 352 352 354 349 343 343 344 350 352 349 350 352 352 353 352 353 353 353 356 354 352 355 351 346 345 344 345 347 343 342 346 345 342 343 343 339 339 339 338 339 339 340 341 340 342 343 342 343 342 343 345 345 346
353 352 353 352 352 354 351 348 348 349 350 341 333 338 338 339 343 346 350 351 351 351 349 348 348 347 346 346 349 349 349 352 352 352 352 348 343 341 340 347 354 352 351 352 352 352 352 354 355 356 357 350 347 354 354 350 347 345 346 346 344 344 345 345 344 345 345 343 342 341 339 339 340 341 342 342 342 343 344 344 342 344 345 344 347
352 351 353 352 353 354 350 348 346 347 350 342 334 337 337 338 343 347 349 348 348 348 349 349 348 348 348 349 349 349 349 351 352 351 350 346 342 342 341 344 350 353 353 353 353 354 355 356 354 350 348 343 344 351 352 351 351 348 348 347 346 346 344 344 344 344 345 344 344 342 341 341 341 342 343 343 343 344 344 343 343 345 344 344 348
350 350 353 352 354 355 351 348 344 344 348 343 336 337 336 335 340 346 348 346 345 346 348 349 349 349 350 351 351 350 349 348 350 351 348 345 343 342 342 343 347 350 352 353 354 354 355 354 349 347 347 348 351 352 348 349 352 350 351 350 349 348 347 346 344 344 345 346 346 344 341 342 342 342 343 343 344 345 344 344 346 346 346 348 350
349 350 352 353 355 356 352 349 345 345 347 342 337 338 337 334 337 344 349 347 345 346 347 348 350 350 351 352 351 351 351 348 348 348 345 344 343 343 345 346 348 352 353 354 355 354 353 348 347 351 351 349 352 353 351 352 353 352 352 352 351 349 347 348 346 346 346 345 347 347 343 342 341 341 344 344 345 346 345 348 348 347 346 349 352
349 349 350 352 355 357 354 349 345 346 347 341 338 339 337 336 337 343 348 348 347 348 348 348 348 348 348 350 350 348 350 349 347 347 345 346 345 344 348 351 352 354 352 352 354 355 353 351 353 354 348 344 347 352 354 354 353 353 351 349 350 348 346 348 347 347 347 346 349 350 345 344 343 343 345 345 347 347 347 349 349 348 349 350 353
Wind_Speed
18 17 16 17 17 18 18 17 16 16 16 15 15 15 15 16 15 14 14 13 11 10 9 9 9 9 9 10 11 11 13 13 11 11 11 12 13 14 15 16 17 17 17 17 17 16 16 16 16 17 17 16 17 16 16 16 16 16 16 17 17 17 17 18 17 17 16 16 16 16 15 15 15 15 15 15 14 13 13 13 12 11 9 8 10
19 17 16 17 17 18 18 16 16 16 16 15 14 14 14 15 15 14 13 12 10 9 9 9 9 9 10 11 11 11 13 12 11 11 12 13 14 15 15 16 17 17 17 16 17 16 16 16 16 17 16 16 16 16 16 15 15 15 16 16 17 18 18 18 18 18 17 16 16 15 14 14 14 14 14 14 14 14 14 12 11 11 9 9 10
19 16 16 17 17 17 16 16 16 16 16 14 13 13 12 14 14 13 12 11 9 8 8 8 9 9 10 11 10 11 12 12 11 11 13 14 14 15 15 15 16 16 16 16 16 16 16 16 16 16 16 16 16 16 15 14 14 15 16 17 18 18 18 17 17 17 17 16 15 15 14 13 13 13 13 13 13 13 14 13 12 11 11 11 11
18 16 15 15 16 16 16 15 15 15 15 14 13 12 12 13 13 13 11 10 9 9 8 8 9 9 10 10 10 11 11 12 12 11 14 14 14 15 15 16 16 16 15 16 16 16 16 16 16 16 16 16 15 15 15 15 15 15 16 18 18 17 16 16 16 15 14 14 14 14 13 12 12 13 13 12 13 13 13 13 13 13 13 12 10
17 16 15 14 15 15 16 15 14 15 15 14 13 12 11 12 12 12 11 10 10 9 10 10 10 10 9 9 11 11 11 12 12 12 14 14 14 15 15 16 15 15 15 16 16 16 16 16 17 16 16 16 15 15 15 16 15 16 16 17 17 16 15 15 14 13 13 13 14 13 12 11 11 12 12 12 12 12 12 12 12 13 13 12 10
16 16 15 15 14 14 15 14 14 14 14 14 13 12 11 11 11 12 11 11 10 10 10 11 12 11 10 10 12 12 11 12 13 13 14 14 15 15 15 15 15 15 15 16 16 16 16 16 16 16 16 16 15 15 16 16 16 17 16 16 16 15 15 14 13 13 14 14 13 12 12 11 10 11 11 11 11 11 11 11 11 11 11 11 10
15 16 15 16 15 14 14 13 13 13 14 14 13 13 12 11 11 12 12 11 10 10 10 11 13 13 13 13 14 13 11 13 13 14 14 14 16 16 15 15 14 15 15 15 16 16 16 16 16 15 16 16 15 15 15 15 15 16 16 16 15 15 15 13 12 13 15 15 12 11 12 11 10 11 10 11 11 11 11 10 10 9 10 10 9
15 15 14 15 16 15 13 14 13 13 14 14 13 13 12 12 11 11 12 12 11 11 11 12 14 15 15 16 15 13 12 14 13 14 15 14 15 15 15 15 14 15 15 14 15 15 15 15 15 15 15 15 15 15 14 13 13 14 15 15 15 16 15 13 13 13 14 14 11 9 12 12 10 10 10 11 11 11 11 10 9 7 8 8 8
14 14 13 14 15 14 13 13 13 12 12 13 12 12 11 11 11 11 11 11 11 11 12 13 14 15 14 14 15 13 12 14 14 14 15 15 15 15 15 14 14 14 14 14 14 15 15 15 14 15 15 15 15 14 14 13 12 13 14 14 14 15 13 13 13 13 13 12 10 10 12 12 9 8 8 9 10 10 10 9 7 6 6 6 6
14 12 12 13 14 13 12 12 12 11 11 12 12 11 10 9 10 9 10 10 11 11 12 13 14 14 14 13 14 14 12 13 14 14 14 15 14 14 14 14 13 13 13 14 14 14 14 14 14 15 15 15 15 13 14 13 13 13 13 13 14 14 13 13 14 11 11 11 10 10 11 11 9 8 8 8 9 8 8 8 7 6 5 4 4
14 12 12 13 13 12 11 11 11 11 11 11 12 11 10 9 9 8 9 10 11 11 12 14 14 13 13 13 13 14 13 13 14 14 14 14 14 14 14 13 12 12 13 13 14 13 13 13 13 14 15 14 13 13 13 13 13 13 14 14 13 14 13 15 14 10 10 12 10 10 10 9 8 7 7 8 8 7 7 7 6 5 4 3 3
13 12 12 12 12 11 10 11 11 10 10 11 11 11 10 9 9 9 10 11 11 11 12 13 13 13 13 13 12 13 13 13 14 14 14 13 13 14 14 13 12 12 13 13 13 12 12 12 13 13 14 14 13 13 13 13 13 13 14 14 12 13 14 15 13 9 10 11 11 11 10 8 6 5 6 7 7 6 6 5 5 4 3 3 3
12 11 11 12 11 10 10 10 10 10 10 10 10 10 10 10 9 10 10 10 11 11 12 12 13 13 14 13 12 13 13 13 14 14 14 14 13 13 14 13 12 12 12 12 12 12 11 12 13 13 13 13 13 13 13 14 13 13 13 13 13 13 15 14 11 10 10 10 10 9 8 7 5 4 4 4 5 4 4 4 3 3 3 3 3
13 12 12 11 10 10 9 9 9 10 10 10 10 9 9 9 10 10 10 10 11 11 12 12 12 13 13 13 13 13 13 14 15 15 14 14 13 13 14 13 12 12 12 12 11 11 11 12 12 13 12 12 13 12 13 14 13 12 12 12 13 14 15 12 9 10 10 11 9 6 6 5 3 2 3 4 5 4 4 4 4 4 3 2 2
13 13 12 10 10 10 9 9 9 9 10 9 9 9 9 9 10 10 10 10 11 12 13 13 13 13 12 12 13 13 13 14 14 14 14 14 13 13 14 13 12 11 12 12 11 11 11 11 12 12 11 11 11 11 12 13 12 11 11 11 12 15 16 11 7 9 9 10 10 7 5 3 2 2 3 6 7 6 6 6 6 5 4 3 2
13 13 12 10 10 10 9 9 8 8 9 9 9 9 9 10 10 10 11 11 11 13 13 14 13 12 13 12 13 13 12 13 14 13 13 13 13 13 13 12 11 11 11 11 11 10 11 11 12 11 11 11 10 10 11 11 11 10 10 11 12 15 18 14 8 9 8 8 9 6 4 3 4 4 6 9 9 8 8 7 7 6 5 5 5
12 12 12 10 9 9 9 8 8 8 8 8 9 10 10 10 10 10 11 11 12 13 13 13 13 12 13 12 12 12 12 13 14 13 13 13 13 14 14 12 11 10 11 10 10 10 10 11 11 11 11 10 9 10 11 11 10 10 11 12 14 16 18 16 8 7 8 8 8 5 4 6 6 7 9 11 11 10 9 9 8 8 7 6 6
11 11 10 8 8 8 8 7 8 8 8 8 9 10 10 10 10 10 11 11 12 12 12 13 13 13 13 13 13 12 12 13 13 13 13 12 13 14 14 12 11 10 10 9 9 10 10 10 10 10 10 10 10 10 10 10 10 11 12 12 15 16 17 15 8 6 9 9 6 4 5 7 8 9 10 12 12 11 9 9 8 8 7 6 6
10 8 7 6 7 8 7 6 7 7 8 8 8 8 10 10 10 11 11 12 12 12 12 13 13 13 14 14 14 13 12 13 13 13 13 12 13 13 13 12 10 10 9 8 8 9 9 9 10 10 10 10 10 10 10 10 11 11 12 13 13 14 16 13 8 7 8 8 4 3 6 8 8 10 11 12 12 11 9 8 8 7 7 6 5
9 7 6 7 7 8 7 5 5 5 6 7 7 8 9 10 10 10 11 11 11 12 13 13 13 14 14 14 14 14 13 13 13 14 13 12 13 13 12 11 10 9 9 8 8 8 8 9 10 10 11 11 11 10 10 10 11 11 11 12 12 13 13 9 8 6 5 7 4 3 6 7 9 10 11 12 11 10 9 8 7 7 6 5 5
8 8 7 7 7 7 7 5 5 4 5 5 6 7 8 9 10 11 11 11 12 12 12 12 13 14 14 14 14 14 14 13 13 14 13 12 12 13 12 11 10 9 9 9 8 8 8 9 10 10 11 11 11 11 10 10 10 10 10 11 12 11 8 7 7 5 5 5 4 5 7 8 9 9 10 11 9 9 8 7 7 6 6 6 5
8 8 8 8 7 7 6 6 6 6 6 6 6 7 8 9 10 11 12 12 13 12 12 12 13 14 14 15 14 13 13 13 14 14 13 12 12 12 11 10 11 10 10 10 10 10 10 10 10 9 10 9 10 11 10 9 10 10 10 11 12 8 5 7 6 5 5 3 4 6 7 8 9 9 9 9 8 8 8 8 7 6 6 6 6
8 8 9 9 7 7 7 7 7 7 6 6 6 7 8 9 10 11 12 12 13 13 12 12 13 14 14 14 14 13 13 14 15 15 14 13 12 11 11 11 12 12 11 11 11 11 11 10 10 9 8 8 9 9 7 7 9 10 12 12 10 6 5 7 5 5 5 3 5 7 7 8 8 9 9 8 8 8 8 8 7 6 7 7 7
8 7 9 10 8 8 7 7 7 8 7 5 5 6 7 9 10 10 10 10 12 13 12 12 13 15 15 15 16 14 13 14 15 15 14 13 12 11 11 12 12 13 13 12 11 10 11 11 10 8 7 8 9 7 3 3 4 7 10 9 5 4 5 5 4 5 4 4 5 7 7 8 8 8 8 8 8 8 8 8 8 8 8 8 9
8 8 9 10 9 9 8 8 7 8 8 6 5 5 6 7 9 9 9 8 10 12 13 14 15 16 16 16 16 15 14 14 15 15 14 13 12 12 12 12 12 12 12 11 10 9 11 11 8 7 8 8 6 3 3 2 1 2 4 5 4 4 4 4 5 5 3 3 6 6 7 8 8 8 8 8 8 8 9 9 9 10 10 10 10
9 8 9 10 10 9 8 7 7 8 8 7 6 5 5 6 7 9 9 9 10 12 16 16 16 17 17 16 16 15 15 14 15 15 14 14 12 11 10 10 10 10 10 9 7 7 8 7 4 5 6 5 3 3 3 3 3 4 4 4 4 4 4 4 5 5 2 3 5 6 7 8 8 8 8 8 8 9 10 10 11 11 11 11 10
9 9 9 10 10 10 10 8 8 8 7 8 7 6 5 5 8 10 10 10 11 13 16 17 17 18 18 17 17 16 15 14 14 14 14 13 11 10 9 10 9 8 8 7 6 6 6 5 2 3 3 4 3 3 4 3 4 4 4 4 4 4 4 4 4 5 2 2 6 6 7 8 8 8 8 8 9 10 11 12 12 12 12 11 10
9 9 9 10 10 10 10 10 9 9 8 8 7 6 6 5 7 9 8 10 12 12 15 17 18 19 19 17 17 16 15 14 14 14 13 12 10 10 10 10 9 8 7 7 6 6 6 5 4 4 3 4 3 3 4 3 4 4 5 5 4 4 4 4 4 6 3 1 5 6 6 8 8 8 9 10 11 12 12 13 13 12 12 11 10
10 10 10 10 10 10 9 8 9 8 8 8 8 7 9 8 7 8 8 10 12 11 13 16 18 20 19 17 16 15 14 14 14 13 11 10 10 10 10 9 8 8 7 6 6 6 5 5 4 4 3 3 2 4 3 3 5 4 5 5 5 4 5 5 5 6 4 2 3 6 6 7 8 8 10 11 12 13 13 13 12 12 11 10 9
10 10 10 10 10 10 9 9 9 9 8 8 8 8 9 9 9 10 10 11 11 12 14 16 19 20 19 17 15 13 12 12 12 10 10 10 11 11 9 9 8 7 7 6 6 5 5 4 4 3 2 2 2 3 3 3 5 4 5 5 5 5 5 5 5 5 5 3 2 5 7 7 8 9 10 12 13 13 13 12 12 11 10 9 8
10 10 10 10 10 10 10 10 8 9 9 8 9 9 9 9 9 10 10 10 10 12 13 13 17 19 20 19 15 12 11 11 11 10 10 11 12 11 9 9 8 7 7 6 5 5 4 4 5 4 3 2 3 3 3 4 5 5 5 6 6 6 5 6 6 6 6 5 3 4 6 8 8 9 11 12 13 13 12 11 11 10 9 8 7
10 10 10 10 10 10 10 10 8 9 9 9 9 9 9 9 10 9 9 10 10 11 11 11 14 16 18 20 15 13 12 11 11 11 10 11 10 10 9 7 7 6 6 5 5 5 4 4 5 6 4 2 2 3 3 4 4 5 6 6 6 6 5 5 6 6 5 5 5 3 5 7 8 9 11 11 12 12 11 10 9 8 8 7 5
10 10 10 10 11 10 10 10 8 9 9 8 9 10 10 10 10 10 10 11 10 10 11 11 13 14 16 17 15 15 14 12 13 12 10 10 10 9 8 7 6 6 5 5 6 5 4 4 4 4 2 1 3 2 3 5 4 4 6 6 6 6 6 5 6 6 4 4 5 4 3 5 8 9 9 10 10 9 9 8 7 7 6 5 4
10 10 10 11 11 10 10 10 10 10 10 9 9 10 10 10 10 11 12 11 10 10 11 11 13 14 14 13 14 15 14 13 15 14 10 10 9 8 7 6 6 5 5 5 4 4 4 4 3 2 1 1 3 2 3 5 4 4 5 6 6 5 5 5 5 6 5 5 5 5 3 2 5 7 7 7 7 7 7 6 5 5 4 3 2
10 10 11 11 10 10 10 11 11 11 10 9 9 10 10 10 11 12 12 10 10 10 11 11 12 12 12 13 13 13 14 14 16 14 9 9 8 8 7 6 7 5 5 6 5 3 4 5 3 2 2 2 3 3 4 4 3 4 5 5 6 5 5 5 5 5 6 5 4 4 3 2 2 3 4 4 3 3 4 4 3 3 2 2 1
10 11 11 11 10 11 11 11 12 11 11 10 10 10 10 10 11 11 12 11 10 10 11 11 11 11 11 13 13 13 14 14 16 15 10 8 7 7 7 6 7 6 4 7 7 4 5 6 4 2 2 2 2 4 4 4 4 5 5 5 5 5 5 4 3 5 5 5 5 4 4 4 1 1 3 3 3 2 1 1 1 1 2 2 3
11 11 11 11 10 11 11 11 12 12 11 11 11 11 11 11 11 11 11 11 10 10 11 11 11 11 10 12 13 13 14 14 14 15 11 7 7 7 6 5 6 5 5 5 5 4 4 5 4 2 2 2 1 3 4 3 4 5 5 6 4 3 4 3 3 4 5 5 6 6 5 5 3 2 5 4 1 1 2 3 4 5 5 5 6
12 12 11 11 11 10 11 12 12 12 11 11 11 10 12 13 11 10 11 10 9 10 10 11 11 11 10 12 13 13 13 13 13 15 13 7 6 7 5 6 5 4 6 4 3 5 3 3 2 1 2 2 2 2 3 2 3 4 4 5 3 3 3 3 4 4 5 5 5 6 7 5 4 3 4 6 3 4 3 2 4 6 6 7 9
12 13 12 12 11 11 11 13 13 13 12 12 12 11 12 12 10 10 10 9 9 10 10 10 10 10 10 11 13 13 12 13 13 13 12 6 4 5 4 6 4 5 6 4 4 5 4 4 2 2 2 1 1 1 2 2 1 3 3 4 3 3 3 2 3 4 4 5 5 7 8 7 6 7 4 7 7 6 6 5 3 5 7 6 8
13 14 13 12 12 12 12 13 13 13 13 13 13 11 11 11 10 10 10 10 10 10 10 10 10 10 10 11 12 12 12 12 12 12 11 7 5 4 4 5 4 5 6 4 3 4 6 4 2 4 3 1 1 1 2 1 1 2 2 2 3 3 4 3 4 5 4 5 6 6 8 7 6 7 5 6 7 6 8 7 4 6 8 7 8
14 14 14 14 13 12 12 13 13 14 14 14 13 12 11 11 11 11 10 10 10 10 10 9 10 10 10 12 11 11 12 11 10 10 10 9 7 4 5 6 4 4 6 5 5 7 7 4 2 4 3 0 1 1 2 1 2 4 2 3 4 3 4 4 4 6 5 5 7 6 6 7 8 9 7 7 8 7 7 7 7 7 8 9 11
15 15 14 14 14 13 13 13 13 14 14 14 14 12 12 12 11 11 10 10 11 10 10 9 9 10 11 12 10 10 11 10 10 9 8 7 6 4 4 5 4 4 6 6 6 8 7 4 1 1 1 1 1 0 1 1 2 4 3 3 5 5 4 4 5 6 6 6 7 7 7 7 8 9 8 9 8 7 6 6 6 7 9 11 12
15 15 15 15 15 14 14 14 13 13 14 14 14 13 12 11 10 9 9 10 10 9 9 9 9 10 11 11 10 10 11 9 9 8 7 6 6 5 3 4 4 4 5 5 5 6 6 4 1 2 3 3 2 1 1 0 2 1 3 4 5 5 4 5 6 5 5 5 5 7 7 7 8 8 7 9 8 7 7 7 6 7 10 13 14
15 15 16 15 15 15 15 15 14 13 14 15 15 13 13 13 11 9 9 9 10 9 9 9 9 10 11 11 10 11 10 8 8 7 5 6 7 5 3 3 4 4 4 4 4 4 4 3 2 2 2 1 2 1 1 0 2 0 2 3 4 5 4 4 7 6 6 6 5 6 6 6 8 8 7 8 8 6 6 7 8 8 11 16 16
16 16 16 16 15 16 16 16 15 14 13 15 16 15 15 15 15 14 11 10 10 9 10 10 10 11 11 10 10 10 10 8 7 7 5 6 7 6 5 4 3 4 3 3 3 3 4 3 3 3 0 1 2 1 1 1 0 0 1 2 3 4 3 3 5 4 5 6 4 4 4 5 7 7 7 8 7 6 6 5 6 9 11 14 14
16 16 17 16 16 16 16 16 16 15 14 14 16 16 15 15 15 15 13 11 11 10 10 10 10 11 11 10 9 9 10 8 7 7 6 7 7 6 7 4 2 3 4 4 4 4 4 3 3 2 0 2 3 0 2 1 0 0 1 1 3 3 2 4 6 2 4 8 5 5 5 5 7 7 6 8 8 6 5 4 5 8 10 11 13
16 16 16 16 16 17 16 16 16 16 14 15 16 16 16 16 14 14 12 11 11 10 10 10 10 10 10 10 10 9 10 8 7 8 8 8 7 7 7 5 3 3 4 4 4 3 4 4 4 4 3 5 4 0 2 1 1 2 1 1 2 4 4 5 6 5 4 7 6 7 8 7 8 8 6 7 7 5 5 5 5 7 10 11 13
17 16 17 16 17 17 16 16 17 17 16 16 17 16 17 17 15 13 12 11 10 10 10 9 9 10 9 9 10 9 10 9 8 8 9 8 7 7 7 6 5 4 4 3 3 4 4 4 7 7 6 5 3 2 3 1 2 3 1 2 3 4 6 6 6 7 5 6 6 6 7 8 10 9 7 7 8 5 6 6 3 6 12 12 11
17 17 17 16 17 18 17 16 16 17 17 17 17 17 17 17 17 13 11 11 10 10 10 10 9 10 10 9 9 9 10 11 10 9 9 8 8 8 7 6 6 5 4 3 4 5 6 7 6 5 5 4 4 5 4 3 4 4 2 3 4 4 5 5 6 7 4 3 5 5 6 8 9 9 8 10 10 7 7 8 5 6 9 9 10
17 17 17 17 17 18 17 17 16 17 17 17 17 17 17 17 17 15 12 12 11 11 11 11 10 11 11 10 11 11 9 10 11 10 10 9 8 8 7 6 5 5 5 5 5 5 6 6 4 4 7 7 6 5 5 4 5 5 4 4 4 5 6 5 7 6 4 4 5 5 8 10 10 9 9 11 11 9 7 8 8 8 7 6 7
18 18 18 18 18 17 17 16 16 17 18 17 18 18 17 17 17 16 15 14 13 12 12 12 12 12 12 11 11 11 10 9 10 10 10 10 9 8 7 6 6 6 6 5 4 4 4 3 3 6 8 7 7 6 6 6 6 7 7 7 7 7 7 7 7 7 6 6 5 5 7 10 11 12 11 11 10 9 6 6 9 9 7 6 5
Wind_Direction
136 139 135 133 133 134 132 127 122 119 118 118 121 121 121 120 117 114 115 115 114 117 117 116 116 116 121 118 121 124 121 132 136 124 117 113 115 114 111 110 110 110 109 108 106 106 107 107 107 106 105 103 102 101 101 102 102 103 103 103 101 98 96 96 95 93 92 90 89 88 88 88 88 88 88 88 90 90 89 87 86 85 86 94 96
138 139 138 138 136 135 133 129 125 123 122 121 123 123 121 118 115 112 111 112 114 121 118 117 118 123 131 122 124 127 127 137 136 126 121 119 117 113 110 110 109 109 108 106 105 104 104 104 104 104 103 101 100 99 99 99 100 102 103 102 100 97 96 95 95 93 91 89 87 85 85 85 86 87 86 86 87 87 86 88 90 91 93 97 97
135 135 140 141 138 136 134 130 127 126 123 122 125 123 118 114 112 111 111 112 115 121 119 122 126 134 135 127 132 126 124 134 135 133 126 120 115 112 111 110 108 108 107 106 104 102 102 101 100 100 99 99 100 102 101 99 99 101 102 101 98 97 96 96 96 95 92 89 87 85 82 81 83 85 84 84 86 85 85 87 89 92 93 93 94
135 135 139 141 138 132 131 131 129 127 124 125 126 123 118 115 114 114 114 117 122 125 125 129 130 133 133 135 137 126 132 137 136 135 124 117 115 115 113 110 109 109 107 105 105 104 103 101 99 98 97 98 99 100 101 99 99 100 101 100 97 94 93 92 93 94 93 90 88 83 80 81 83 85 84 84 84 84 86 86 86 86 85 88 92
134 135 137 138 134 131 132 134 134 131 131 132 128 125 124 123 121 120 121 124 127 126 129 133 130 131 133 136 132 133 147 139 135 133 122 118 117 114 112 111 110 109 107 105 105 104 103 102 101 99 98 98 97 97 97 98 100 100 99 97 95 94 93 92 92 93 91 89 90 88 85 84 85 86 87 87 87 87 88 87 85 84 83 84 86
131 135 138 139 136 134 135 136 138 137 137 136 131 131 131 126 122 120 121 121 126 128 133 137 132 129 127 123 126 144 153 136 134 130 123 124 118 115 112 110 110 109 106 105 105 103 101 100 100 99 98 98 97 96 97 99 100 100 98 95 95 95 95 95 93 93 90 84 84 89 90 86 86 88 90 90 89 89 89 87 85 85 84 82 81
130 135 139 142 141 140 140 139 141 142 142 138 137 138 134 129 125 124 124 125 129 133 135 131 127 127 129 128 136 154 150 134 135 129 125 123 118 117 114 112 111 108 106 106 105 103 101 99 100 100 98 98 98 97 96 97 98 99 97 95 95 96 95 94 95 96 94 89 86 92 94 88 87 89 90 90 89 88 84 81 81 85 87 85 83
130 133 138 143 142 146 145 144 146 147 144 142 144 142 136 135 135 133 134 134 133 137 134 125 126 132 139 141 146 154 142 135 137 132 127 121 118 118 115 113 113 111 108 107 105 104 103 101 102 100 99 99 99 99 98 97 96 95 95 96 97 97 96 96 98 98 95 94 96 100 96 90 87 88 91 92 92 90 86 79 74 77 83 87 90
125 128 137 141 142 148 147 145 146 146 145 145 147 143 140 142 142 142 142 138 137 141 137 128 129 137 145 145 143 141 136 139 141 135 128 122 121 119 116 114 114 112 108 108 106 105 105 104 105 104 102 100 100 101 102 103 101 100 102 104 104 102 100 100 95 88 91 97 99 97 94 93 89 89 92 94 95 96 95 89 82 81 83 87 91
122 124 134 139 145 150 146 144 144 147 147 144 145 144 145 146 146 151 150 142 144 149 144 137 137 143 148 145 137 134 137 142 140 135 128 125 123 121 117 115 115 111 109 109 106 107 108 107 108 108 106 103 102 101 103 104 105 108 111 112 111 108 106 99 88 77 85 94 93 93 94 95 91 92 100 101 99 97 96 95 96 98 95 91 88
125 129 134 138 147 149 146 145 144 151 150 143 143 145 145 147 152 158 157 151 153 154 148 144 143 148 150 145 138 135 138 140 138 134 129 125 124 122 118 116 115 111 109 107 106 107 107 108 109 109 108 106 104 102 101 103 106 109 113 118 117 112 105 93 88 85 89 92 90 90 92 94 92 94 103 104 103 100 97 98 100 103 102 97 88
128 132 136 142 147 145 145 141 144 151 149 144 143 146 147 152 157 157 161 161 161 158 151 150 149 149 149 146 143 138 137 138 135 132 129 125 123 122 120 117 114 111 107 104 105 104 104 108 111 110 110 108 105 100 99 101 105 108 114 122 121 115 106 92 93 99 95 95 95 94 92 91 89 93 106 105 106 105 103 104 101 105 104 100 91
129 128 133 144 146 142 143 141 145 149 146 145 144 150 154 158 162 162 165 165 165 165 159 156 154 153 151 149 148 145 141 137 132 130 127 123 124 125 121 118 114 112 109 107 106 105 106 110 113 113 110 110 105 100 100 101 103 106 113 121 120 117 106 93 97 103 93 91 91 95 96 93 89 92 113 117 120 121 120 121 117 121 115 111 103
129 124 131 145 147 144 147 147 149 147 145 146 148 157 162 166 168 170 172 169 168 166 164 163 162 161 156 152 152 149 143 137 133 133 129 126 128 128 125 122 119 117 113 110 107 106 107 111 115 116 114 110 104 102 103 102 102 103 109 118 120 114 100 87 89 94 90 88 82 83 94 96 96 92 113 125 133 142 148 149 147 147 137 133 132
130 129 135 147 149 149 154 154 156 150 147 149 156 166 172 176 175 176 177 173 169 164 163 165 167 168 161 157 154 148 139 133 132 132 130 130 130 128 125 123 123 121 116 111 109 109 109 114 116 117 116 109 106 106 104 100 99 100 106 115 121 114 102 96 94 92 87 90 87 82 86 86 99 119 129 126 127 135 143 144 145 145 140 141 144
132 132 133 144 153 154 158 160 162 158 158 163 169 177 183 186 181 180 182 177 172 166 164 163 168 171 163 160 156 149 139 132 130 131 132 131 129 126 123 123 124 122 120 114 111 113 114 117 117 117 113 107 105 102 98 95 93 95 99 106 117 113 103 101 98 95 92 89 91 90 90 100 117 133 132 126 120 120 123 125 128 128 128 132 132
132 134 135 148 157 156 161 161 164 167 172 179 179 182 189 193 185 183 186 182 176 171 168 164 169 173 165 160 153 146 141 136 134 133 131 131 129 127 125 126 127 121 117 112 112 116 118 117 115 115 111 106 101 95 95 91 90 91 94 100 106 106 101 99 99 110 110 93 91 97 105 118 127 129 124 118 112 111 115 119 123 126 127 127 124
134 139 147 157 155 148 157 161 166 173 177 186 188 187 189 195 193 187 189 188 182 177 172 165 170 173 166 162 151 143 139 134 135 133 131 133 132 129 127 127 127 119 113 113 116 118 118 116 112 112 107 102 97 95 96 94 93 90 96 99 96 97 95 96 100 105 102 94 100 116 118 128 131 125 117 111 109 111 115 119 121 122 120 118 116
137 144 149 140 134 134 147 165 173 178 182 188 192 196 194 197 198 190 191 193 186 181 176 169 171 169 163 161 151 145 140 133 135 135 135 136 132 129 128 129 126 120 121 126 127 123 119 115 112 110 102 98 96 95 94 92 95 94 96 96 91 88 85 90 99 94 93 102 116 130 125 133 130 122 117 112 112 114 115 116 115 111 110 107 108
141 146 140 121 126 137 147 169 185 188 197 190 182 195 198 197 196 194 195 194 190 185 179 173 168 164 161 156 150 149 145 138 138 136 137 136 132 130 129 129 127 124 130 136 136 132 126 120 116 110 104 100 96 91 88 89 97 97 90 90 90 82 79 90 100 99 109 122 140 145 134 135 128 123 119 115 114 114 115 113 111 110 107 103 100
148 149 140 131 137 145 147 156 176 186 208 204 178 188 197 193 190 195 196 191 192 184 172 173 166 162 160 154 150 151 148 142 138 136 136 135 133 129 128 129 125 125 129 132 132 131 130 128 123 116 111 104 94 83 76 84 92 88 82 83 82 75 80 98 98 100 102 121 151 145 138 134 128 124 118 115 114 113 113 110 110 110 109 108 106
155 153 144 141 140 139 141 144 158 170 193 207 184 187 197 191 187 190 192 187 188 177 165 168 163 161 159 152 150 150 148 143 139 137 136 136 134 129 128 126 120 122 125 125 125 127 131 132 129 122 113 103 91 79 66 73 80 73 72 74 73 74 90 98 102 111 104 127 152 135 138 135 127 122 114 111 111 112 113 112 112 114 116 115 113
156 157 147 142 142 142 145 145 157 160 171 202 188 187 202 197 193 188 187 183 177 170 167 166 160 161 158 150 151 149 147 145 141 139 138 136 132 128 127 123 120 121 122 122 124 127 131 134 132 123 109 94 84 77 52 46 62 60 63 70 75 84 86 91 100 103 117 172 150 135 139 131 123 117 112 111 113 115 117 117 119 122 122 116 110
156 157 148 143 147 149 148 150 157 151 157 198 197 191 202 197 196 187 183 179 164 155 154 159 160 160 159 154 152 149 147 146 141 138 136 133 127 126 125 121 118 121 123 123 125 130 134 135 130 120 101 82 74 80 74 31 30 33 56 76 93 100 83 93 113 106 136 170 142 140 135 124 119 114 113 114 117 120 122 125 126 126 120 112 104
156 154 148 145 147 147 150 152 153 151 158 180 196 205 197 186 192 182 175 171 155 143 137 149 157 156 158 154 150 149 148 145 139 136 132 127 124 123 121 120 123 127 126 121 124 131 133 130 118 100 87 77 75 118 157 146 124 39 75 110 118 113 105 106 115 119 160 164 138 137 128 122 117 115 116 118 123 126 127 128 127 124 116 107 98
156 151 147 146 147 148 150 151 153 156 160 162 178 202 189 182 190 175 170 165 155 148 142 152 157 153 156 152 148 149 147 146 138 135 133 128 128 128 125 128 132 132 124 123 133 130 129 131 99 70 82 101 138 147 147 145 142 128 120 124 111 109 117 118 117 126 162 147 133 133 126 124 119 119 120 122 129 129 128 128 124 118 110 103 96
154 151 149 147 149 149 148 153 156 155 157 155 163 176 168 185 183 167 169 163 157 154 147 155 158 154 155 148 148 149 145 145 139 137 136 131 132 136 134 135 136 131 127 136 145 130 135 156 137 93 113 148 156 125 128 137 136 135 122 112 123 126 122 126 124 132 158 128 125 131 126 125 123 124 125 129 132 129 127 126 122 116 110 105 97
151 151 149 147 151 152 152 158 155 152 154 153 159 160 158 178 173 161 166 160 157 152 142 151 156 152 151 146 147 148 145 146 144 141 137 132 137 140 136 137 136 134 135 139 144 146 150 153 144 139 136 137 141 134 136 138 123 123 125 117 121 127 127 135 133 133 150 127 123 131 130 127 126 128 132 134 131 129 127 124 121 117 114 108 99
151 151 149 146 150 152 148 150 147 147 148 149 158 159 158 164 161 159 166 162 156 148 140 146 153 149 145 144 143 145 148 149 146 141 137 141 140 136 135 137 138 136 137 143 149 154 153 148 144 139 130 118 135 142 134 148 136 116 125 126 119 119 123 133 133 130 146 177 133 130 133 130 131 136 136 134 130 128 126 124 123 120 116 110 103
151 150 149 146 147 147 143 145 147 144 142 145 153 153 153 156 159 163 162 161 157 150 145 143 148 148 144 145 144 142 143 140 139 139 143 147 137 132 138 138 135 134 140 150 152 152 147 147 141 133 139 121 129 148 128 133 138 121 123 128 123 120 118 123 123 127 146 175 150 132 136 134 136 140 136 131 128 127 128 128 126 123 120 115 110
150 150 148 147 146 146 145 150 150 141 142 147 149 149 150 151 156 156 148 151 148 142 144 141 141 147 151 154 150 142 141 141 145 149 148 141 132 133 136 134 135 140 146 149 154 157 151 155 155 143 137 120 120 145 133 126 132 125 120 123 124 121 122 130 123 123 143 166 177 139 133 136 139 138 134 129 127 129 130 130 129 127 124 122 119
151 152 149 149 146 147 147 147 146 136 139 144 144 145 147 147 144 143 141 142 137 132 138 136 135 146 157 156 147 139 144 151 151 145 140 135 134 134 131 135 140 140 144 153 162 158 145 148 148 128 112 114 125 137 141 131 129 131 125 120 123 121 123 133 129 130 149 163 162 139 124 134 138 134 130 129 131 133 133 132 130 131 134 132 128
152 151 150 151 146 148 147 145 144 133 134 141 141 142 143 142 138 143 144 135 130 132 133 135 143 152 156 152 147 145 146 152 149 139 137 137 136 134 131 140 145 145 154 159 155 143 133 129 121 103 85 115 140 143 145 131 120 125 127 121 122 120 118 120 123 129 138 138 141 147 137 134 136 133 130 132 133 134 134 133 134 134 141 142 140
151 151 153 152 147 149 149 147 144 134 135 142 141 141 142 142 140 141 136 130 133 136 135 141 148 149 151 151 151 150 149 153 149 136 135 139 135 135 137 148 154 154 160 155 144 137 136 131 129 125 89 102 143 136 123 130 119 111 117 120 124 126 125 121 115 124 133 134 136 143 151 130 128 127 122 125 130 136 138 134 135 137 144 151 162
152 153 154 152 148 150 150 150 148 139 141 142 139 139 139 139 141 140 133 133 139 137 139 143 143 145 152 154 154 155 151 154 148 133 134 142 137 139 142 162 164 151 162 160 148 152 151 138 133 125 95 95 137 134 117 123 122 118 118 113 116 117 117 118 116 124 129 132 134 130 131 104 93 106 86 62 62 120 142 141 142 143 150 171 227
155 155 154 153 151 151 151 152 148 144 144 143 141 141 139 139 142 142 137 137 138 137 141 142 142 145 153 156 157 158 153 156 150 134 133 144 143 144 149 168 157 146 171 157 136 155 170 145 120 87 98 87 124 147 130 119 123 125 130 123 118 115 118 125 125 132 127 129 144 133 133 142 155 182 103 55 10 15 357 234 209 219 233 260 281
157 156 157 155 153 152 151 152 150 146 147 147 145 144 143 142 141 140 138 137 139 142 142 144 147 147 154 162 160 158 155 156 151 136 130 146 154 144 151 160 143 149 171 154 132 154 160 119 98 96 99 41 53 148 142 146 144 131 136 132 121 122 131 136 121 133 139 141 155 150 153 166 164 137 118 110 45 351 338 314 295 283 278 286 293
158 159 159 158 155 152 151 153 151 148 150 150 144 144 145 139 137 144 140 138 142 144 145 147 149 148 157 166 160 158 158 155 154 141 130 148 160 135 151 158 146 162 159 153 154 155 146 100 92 139 95 36 43 117 145 164 149 133 137 137 137 149 141 143 138 144 157 156 167 171 171 178 201 222 136 142 226 266 251 256 277 282 283 292 305
160 161 160 160 158 154 154 155 152 151 156 153 144 145 145 137 140 149 144 144 149 148 149 149 149 151 163 168 159 158 159 157 158 146 130 142 159 134 161 158 150 166 154 161 168 163 168 138 133 142 78 33 75 84 139 136 137 135 131 138 156 172 152 152 167 166 175 175 178 187 184 179 212 243 190 164 207 250 254 246 240 273 289 298 310
160 163 163 163 162 159 160 157 155 157 160 155 148 147 146 143 149 153 149 150 152 153 153 152 152 154 167 168 158 160 164 161 162 153 139 142 152 158 173 149 147 166 149 150 163 182 181 147 136 140 93 339 152 118 157 151 231 154 134 173 173 189 181 184 206 196 195 189 186 197 200 193 198 213 207 195 206 233 258 270 284 300 308 314 314
162 165 166 167 165 164 165 161 159 161 161 157 153 154 156 153 155 155 156 156 155 157 155 155 156 154 167 167 159 165 167 163 164 159 153 151 151 170 174 149 150 166 155 162 175 183 177 147 136 137 106 277 159 133 166 163 200 169 177 211 185 202 201 200 219 213 214 202 196 206 212 213 206 201 210 217 216 235 252 269 294 300 298 296 302
166 168 168 170 167 168 170 165 164 164 163 162 159 161 162 157 158 159 159 160 158 159 157 158 158 158 170 166 158 169 168 163 167 167 168 160 152 170 174 155 158 171 170 176 183 181 171 151 161 163 141 187 162 71 145 152 228 191 192 217 197 194 199 222 231 220 222 215 207 211 215 226 220 210 215 214 227 263 245 235 262 263 267 278 290
169 169 171 173 168 171 174 170 170 168 166 170 165 164 164 159 160 160 159 161 159 158 158 158 157 163 170 161 162 175 168 163 172 174 174 168 165 171 173 171 172 170 168 169 176 183 174 157 218 230 178 174 173 118 122 29 320 199 191 215 207 192 201 242 237 225 227 225 227 224 219 233 228 216 220 219 235 262 235 235 248 240 272 294 300
171 171 173 175 172 176 179 175 175 171 170 176 169 164 170 166 160 159 158 160 160 159 159 157 158 165 167 163 173 177 163 166 178 171 174 186 179 165 164 196 189 166 164 167 165 173 183 187 212 193 172 179 165 147 142 15 352 18 200 227 218 210 219 236 225 219 228 229 236 239 232 248 240 217 227 242 242 238 231 254 262 257 287 305 310
173 175 174 176 176 179 181 178 177 174 176 180 174 172 177 174 169 167 162 159 162 165 164 164 163 163 168 171 179 177 162 168 180 167 182 200 185 174 181 194 194 171 159 165 167 177 193 200 192 174 204 351 107 91 195 152 342 93 135 249 239 235 252 277 246 217 241 257 267 274 266 284 272 234 232 260 258 247 239 248 272 282 294 303 311
175 176 175 176 176 179 183 180 178 177 182 184 180 179 179 179 181 176 170 167 170 172 170 171 169 166 171 174 178 180 169 170 179 172 190 205 191 190 191 180 194 187 170 175 183 188 186 183 184 164 201 201 143 18 265 155 105 165 125 221 233 261 298 299 283 280 278 276 297 298 266 282 295 279 271 275 272 264 245 249 296 292 284 297 306
177 175 174 176 175 180 184 182 181 179 183 187 184 183 180 181 185 180 178 178 175 177 174 172 173 170 174 177 178 184 180 178 183 184 197 205 196 199 199 185 186 194 188 184 176 178 179 185 201 187 194 206 174 225 298 50 23 271 243 244 250 274 291 286 285 308 286 261 284 293 275 283 291 295 315 301 284 274 252 268 294 275 276 292 299
177 175 173 174 174 181 185 184 184 181 183 189 186 184 185 184 184 181 185 185 179 182 178 173 177 176 176 179 179 188 193 187 188 200 207 206 201 203 206 198 191 194 194 187 182 183 183 201 215 208 213 230 214 238 271 324 321 298 277 280 281 291 298 288 288 308 295 268 290 290 276 283 280 288 315 309 291 282 272 275 247 260 286 290 291
178 177 174 173 174 180 184 186 188 184 185 191 189 186 188 189 188 185 186 187 185 190 186 179 181 180 179 181 180 189 203 199 195 205 210 209 210 208 209 208 202 198 187 185 201 195 198 216 223 218 226 242 245 250 254 258 292 314 344 304 284 291 295 288 289 300 303 301 306 290 280 284 275 282 291 280 284 292 282 277 257 270 294 289 292
180 178 175 172 173 179 183 187 189 188 189 192 191 190 190 191 191 188 189 188 186 192 194 189 189 188 185 188 188 187 200 208 206 210 210 209 214 211 212 212 205 205 200 197 205 207 219 228 224 226 233 234 236 250 261 265 277 291 303 295 280 277 281 287 287 287 307 320 304 284 292 301 292 289 290 281 290 301 283 277 290 299 301 292 297
181 179 179 174 173 178 183 188 190 190 194 194 192 192 192 193 193 191 193 192 189 192 196 194 197 198 192 193 199 195 196 205 211 217 217 213 215 212 209 210 208 211 210 204 205 218 232 238 238 242 248 248 243 245 250 261 275 277 279 280 275 271 271 283 285 280 292 300 294 281 289 304 294 283 288 289 291 301 290 277 293 299 311 328 323